Tracking 19572 objects as of 23-Feb-2019
HD Live streaming from Space Station
objects crossing your sky now

OICETS

Track OICETS now!
10-day predictions
OICETS is classified as:


NORAD ID: 28809
Int'l Code: 2005-031A
Perigee: 559.3 km
Apogee: 588.4 km
Inclination: 97.9 °
Period: 96.0 minutes
Semi major axis: 6944 km
RCS: 1.711 m2 (large)
Launch date: August 23, 2005
Source: Japan (JPN)
Launch site: TYURATAM MISSILE AND SPACE COMPLEX (TTMTR)

Study inter-satellite communications.
aabbcc
Your satellite tracking list
Your tracking list is empty




NASA's NSSDC Master Catalog

Two Line Element Set (TLE):
1 28809U 05031A   19054.18074137 -.00000098  00000-0 -27431-5 0  9997
2 28809  97.9367 149.5071 0020962  81.7923 278.5676 15.00055538736476
Source of the keplerian elements: AFSPC